Voltar ao catálogo

STARLINK-33998

AtivoComunicaçõesVLEO
NORAD 63951·PAYLOAD·🇺🇸 United States

Lançado May 13, 2025 de Vandenberg Space Force Base

Loading…

Próximas Passagens (próximas 24 horas)

TLE

AtualizadoSource: CelesTrak SupGP

Época: Sep 14, 2026, 22:58 UTC

1 63951C 25098AB  26257.95743056  .00018655  00000+0  64816-3 0  2578
2 63951  69.9998 155.5564 0003167 275.5651 144.2622 15.29609703    19

Acompanhe STARLINK-33998 em tempo real com AllMySat

Download on the App Store